Notices

What's New in latest Release from April 7th, 2021:

- Updated Glossary, including Speed of Maximum Gust, and Total Hourly Precipitation

- Updated national and regional climate services offices contacts and prices information

- Addition of station inventory lists for 1981-2010, 1971-2000, and 1961-1990 Normals.

If you haven't already, please take our survey and provide feedback about our website: https://eccc.sondage-survey.ca/f/LanguageSelection.aspx?s=442ca660-fcf1-47c0-95a9-59707d6fd709

Hourly Data Report for March 14, 2017

TORONTO CITY
ONTARIO

43°40'00.000" N
79°24'00.000" W
112.50 m
6158355
71508
XTO

Download Data

Hourly Data (March 2017)
Hourly Data Report for March 14, 2017
TIME
LST
Temp Definition
°C
Dew Point Definition
°C
Rel Hum Definition
%
Precip. Amount Definition
mm

Wind Dir Definition
10's deg

Wind Spd Definition
km/h
Visibility Definition
km
Stn Press Definition
kPa
Hmdx Definition


Wind Chill Definition


Weather Definition


00:00 -8.4 -11.7 77 0.0 LegendMM LegendMM   101.05     LegendNANA
01:00 -8.7 -12.0 77 0.2 LegendMM LegendMM   100.98     LegendNANA
02:00 -8.7 -11.8 78 0.0 LegendMM LegendMM   100.92     LegendNANA
03:00 -9.1 -12.2 78 0.0 LegendMM LegendMM   100.83     LegendNANA
04:00 -9.5 -12.6 78 0.2 LegendMM LegendMM   100.74     LegendNANA
05:00 -9.9 -12.6 81 0.2 LegendMM LegendMM   100.72     LegendNANA
06:00 -10.1 -12.7 81 0.2 LegendMM LegendMM   100.69     LegendNANA
07:00 -10.0 -12.9 79 0.2 LegendMM LegendMM   100.65     LegendNANA
08:00 -10.0 -13.2 77 0.0 LegendMM LegendMM   100.60     LegendNANA
09:00 -9.9 -13.2 77 0.2 LegendMM LegendMM   100.55     LegendNANA
10:00 -9.6 -12.7 78 0.0 LegendMM LegendMM   100.44     LegendNANA
11:00 -9.3 -12.8 76 0.2 LegendMM LegendMM   100.37     LegendNANA
12:00 -8.9 -12.4 76 0.2 LegendMM LegendMM   100.28     LegendNANA
13:00 -8.3 -12.4 72 0.0 LegendMM LegendMM   100.14     LegendNANA
14:00 -7.9 -12.4 70 0.0 LegendMM LegendMM   100.09     LegendNANA
15:00 -7.5 -12.5 67 0.2 LegendMM LegendMM   100.09     LegendNANA
16:00 -7.5 -11.6 72 0.0 LegendMM LegendMM   100.06     LegendNANA
17:00 -7.9 -10.9 79 0.2 LegendMM LegendMM   100.02     LegendNANA
18:00 -7.7 -11.3 75 0.2 LegendMM LegendMM   100.03     LegendNANA
19:00 -7.8 -12.1 72 0.0 LegendMM LegendMM   100.04     LegendNANA
20:00 -8.2 -11.2 79 0.2 LegendMM LegendMM   100.02     LegendNANA
21:00 -8.4 -11.2 80 0.2 LegendMM LegendMM   99.96     LegendNANA
22:00 -8.4 -11.6 78 0.0 LegendMM LegendMM   99.88     LegendNANA
23:00 -8.3 -13.7 65 0.0 LegendMM LegendMM   99.77     LegendNANA

Notes on Data Quality.

Legend

  • E = Estimated
  • M = Missing
  • NA = Not Available*
  • [empty] = Indicates an unobserved value
Date modified: